| time (UTC) | temp F | wind direction | speed MPH | gust MPH | rain 1hr in | rain 24hr in | rain mn in | humidity % | barometer mb |
| 20260509230142 | 63 | 94 | 3.0 | 4.0 | 0.00 | 0.04 | 0.00 | 77 | 1015.4 |
| 20260509230014 | 63 | 91 | 3.0 | 5.0 | 0.00 | 0.00 | 0.00 | 76 | 1015.1 |
| 20260509225128 | 63 | 93 | 4.0 | 6.0 | 0.00 | 0.04 | 0.00 | 76 | 1015.5 |
| 20260509224513 | 62 | 76 | 3.0 | 5.0 | 0.00 | 0.00 | 0.00 | 77 | 1015.2 |
| 20260509224134 | 63 | 79 | 1.0 | 4.0 | 0.00 | 0.04 | 0.00 | 78 | 1015.6 |
| 20260509223134 | 63 | 82 | 3.0 | 3.0 | 0.00 | 0.04 | 0.00 | 78 | 1015.5 |
| 20260509223007 | 62 | 86 | 2.0 | 3.0 | 0.00 | 0.00 | 0.00 | 78 | 1015.2 |
| 20260509222138 | 63 | 83 | 2.0 | 3.0 | 0.00 | 0.04 | 0.00 | 78 | 1015.6 |
| 20260509221506 | 62 | 82 | 2.0 | 3.0 | 0.00 | 0.00 | 0.00 | 79 | 1015.4 |
| 20260509221155 | 63 | 91 | 2.0 | 3.0 | 0.00 | 0.04 | 0.00 | 79 | 1015.6 |
| 20260509220126 | 63 | 96 | 2.0 | 4.0 | 0.00 | 0.04 | 0.00 | 80 | 1015.6 |
| 20260509220028 | 62 | 96 | 2.0 | 4.0 | 0.00 | 0.00 | 0.00 | 79 | 1015.3 |
| 20260509215155 | 63 | 76 | 2.0 | 5.0 | 0.00 | 0.04 | 0.00 | 80 | 1015.7 |
| 20260509214522 | 62 | 98 | 3.0 | 5.0 | 0.00 | 0.00 | 0.00 | 80 | 1015.4 |
| 20260509214137 | 63 | 85 | 4.0 | 4.0 | 0.00 | 0.04 | 0.00 | 80 | 1015.8 |
| 20260509213144 | 62 | 94 | 3.0 | 6.0 | 0.00 | 0.04 | 0.00 | 81 | 1015.9 |
| 20260509213016 | 62 | 94 | 4.0 | 6.0 | 0.00 | 0.00 | 0.00 | 81 | 1015.5 |
| 20260509212128 | 63 | 81 | 4.0 | 6.0 | 0.00 | 0.04 | 0.00 | 81 | 1015.9 |
| 20260509211513 | 62 | 77 | 2.0 | 4.0 | 0.00 | 0.00 | 0.00 | 81 | 1015.7 |
| 20260509211140 | 63 | 60 | 1.0 | 3.0 | 0.00 | 0.04 | 0.00 | 81 | 1016.1 |
| 20260509210143 | 63 | 84 | 3.0 | 3.0 | 0.00 | 0.04 | 0.00 | 80 | 1016.1 |
| 20260509210010 | 62 | 84 | 3.0 | 3.0 | 0.00 | 0.00 | 0.00 | 80 | 1015.8 |
| 20260509205143 | 63 | 101 | 3.0 | 4.0 | 0.00 | 0.04 | 0.00 | 81 | 1016.2 |
| 20260509204505 | 63 | 104 | 3.0 | 4.0 | 0.00 | 0.00 | 0.00 | 80 | 1015.8 |
| 20260509204134 | 63 | 101 | 3.0 | 4.0 | 0.00 | 0.04 | 0.00 | 81 | 1016.1 |
| 20260509203205 | 62 | 87 | 2.0 | 3.0 | 0.00 | 0.04 | 0.00 | 81 | 1016.2 |
| 20260509203037 | 62 | 84 | 2.0 | 2.0 | 0.00 | 0.00 | 0.00 | 81 | 1015.9 |
| 20260509202128 | 62 | 110 | 1.0 | 2.0 | 0.00 | 0.04 | 0.00 | 81 | 1016.2 |
| 20260509201523 | 62 | 108 | 1.0 | 5.0 | 0.00 | 0.00 | 0.00 | 81 | 1015.8 |
| 20260509201139 | 63 | 103 | 2.0 | 5.0 | 0.00 | 0.04 | 0.00 | 81 | 1016.1 |
| 20260509200141 | 63 | 88 | 5.0 | 5.0 | 0.00 | 0.04 | 0.00 | 81 | 1016.1 |
| 20260509200020 | 62 | 84 | 5.0 | 5.0 | 0.00 | 0.00 | 0.00 | 81 | 1015.7 |
| 20260509195132 | 62 | 74 | 1.0 | 3.0 | 0.00 | 0.04 | 0.00 | 80 | 1016.0 |
| 20260509194517 | 62 | 32 | 1.0 | 2.0 | 0.00 | 0.00 | 0.00 | 80 | 1015.6 |
| 20260509194136 | 63 | 94 | 0.0 | 2.0 | 0.00 | 0.04 | 0.00 | 80 | 1015.8 |
| 20260509193210 | 63 | 91 | 0.0 | 2.0 | 0.00 | 0.04 | 0.00 | 81 | 1015.6 |
| 20260509193015 | 62 | 91 | 0.0 | 3.0 | 0.00 | 0.00 | 0.00 | 80 | 1015.3 |
| 20260509192131 | 62 | 94 | 2.0 | 5.0 | 0.00 | 0.04 | 0.00 | 80 | 1015.4 |
| 20260509191519 | 62 | 105 | 4.0 | 5.0 | 0.00 | 0.00 | 0.00 | 80 | 1015.0 |
| 20260509191133 | 63 | 109 | 4.0 | 5.0 | 0.00 | 0.04 | 0.00 | 81 | 1015.2 |
| 20260509190136 | 63 | 104 | 3.0 | 5.0 | 0.00 | 0.04 | 0.00 | 82 | 1015.3 |
| 20260509190028 | 62 | 98 | 4.0 | 5.0 | 0.00 | 0.00 | 0.00 | 81 | 1014.9 |
| 20260509185132 | 64 | 104 | 4.0 | 7.0 | 0.00 | 0.04 | 0.00 | 80 | 1015.3 |
| 20260509184525 | 63 | 113 | 4.0 | 7.0 | 0.00 | 0.00 | 0.00 | 78 | 1015.1 |
| 20260509184139 | 64 | 110 | 4.0 | 7.0 | 0.00 | 0.04 | 0.00 | 78 | 1015.4 |
| 20260509183152 | 65 | 96 | 3.0 | 7.0 | 0.00 | 0.04 | 0.00 | 75 | 1015.5 |
| 20260509183025 | 64 | 105 | 3.0 | 7.0 | 0.00 | 0.00 | 0.00 | 74 | 1015.2 |
| 20260509182134 | 65 | 110 | 2.0 | 5.0 | 0.00 | 0.04 | 0.00 | 73 | 1015.4 |
| 20260509181522 | 64 | 116 | 2.0 | 5.0 | 0.00 | 0.00 | 0.00 | 72 | 1014.9 |
| 20260509181142 | 65 | 110 | 4.0 | 5.0 | 0.00 | 0.04 | 0.00 | 73 | 1015.2 |
| 20260509180135 | 66 | 87 | 4.0 | 5.0 | 0.00 | 0.04 | 0.00 | 70 | 1015.2 |
| 20260509180019 | 65 | 91 | 3.0 | 4.0 | 0.00 | 0.00 | 0.00 | 71 | 1014.8 |
| 20260509175132 | 66 | 101 | 3.0 | 5.0 | 0.00 | 0.04 | 0.00 | 70 | 1015.2 |
| 20260509174514 | 66 | 105 | 1.0 | 4.0 | 0.00 | 0.00 | 0.00 | 69 | 1014.7 |
| 20260509174140 | 67 | 102 | 3.0 | 4.0 | 0.00 | 0.04 | 0.00 | 67 | 1015.1 |
| 20260509173127 | 68 | 110 | 3.0 | 7.0 | 0.00 | 0.04 | 0.00 | 66 | 1015.0 |
| 20260509173028 | 67 | 124 | 3.0 | 9.0 | 0.00 | 0.00 | 0.00 | 65 | 1014.6 |
| 20260509172131 | 68 | 108 | 5.0 | 9.0 | 0.00 | 0.04 | 0.00 | 63 | 1015.1 |
| 20260509171526 | 68 | 107 | 5.0 | 9.0 | 0.00 | 0.00 | 0.00 | 64 | 1014.7 |
| 20260509171133 | 69 | 93 | 6.0 | 9.0 | 0.00 | 0.04 | 0.00 | 64 | 1015.1 |
| 20260509170137 | 70 | 90 | 6.0 | 8.0 | 0.00 | 0.04 | 0.00 | 59 | 1015.1 |
| 20260509170031 | 69 | 96 | 5.0 | 8.0 | 0.00 | 0.00 | 0.00 | 58 | 1014.7 |
| 20260509165135 | 70 | 97 | 5.0 | 12.0 | 0.00 | 0.04 | 0.00 | 57 | 1015.2 |
| 20260509164533 | 70 | 93 | 7.0 | 12.0 | 0.00 | 0.00 | 0.00 | 55 | 1015.0 |
| 20260509164135 | 70 | 89 | 7.0 | 12.0 | 0.00 | 0.04 | 0.00 | 60 | 1015.3 |
| 20260509163127 | 71 | 115 | 7.0 | 12.0 | 0.00 | 0.04 | 0.00 | 57 | 1015.3 |
| 20260509163021 | 70 | 96 | 6.0 | 12.0 | 0.00 | 0.00 | 0.00 | 57 | 1015.1 |
| 20260509162200 | 71 | 102 | 8.0 | 11.0 | 0.00 | 0.04 | 0.00 | 55 | 1015.4 |
| 20260509161534 | 71 | 93 | 7.0 | 9.0 | 0.00 | 0.00 | 0.00 | 56 | 1015.1 |
| 20260509161129 | 71 | 90 | 7.0 | 9.0 | 0.00 | 0.04 | 0.00 | 53 | 1015.4 |
| 20260509160131 | 71 | 103 | 7.0 | 11.0 | 0.00 | 0.04 | 0.00 | 53 | 1015.5 |
| 20260509160014 | 71 | 111 | 8.0 | 12.0 | 0.00 | 0.00 | 0.00 | 54 | 1015.2 |
| 20260509155127 | 72 | 101 | 9.0 | 12.0 | 0.00 | 0.04 | 0.00 | 56 | 1015.5 |
| 20260509154510 | 72 | 97 | 5.0 | 8.0 | 0.00 | 0.00 | 0.00 | 57 | 1015.4 |
| 20260509154134 | 72 | 89 | 6.0 | 9.0 | 0.00 | 0.04 | 0.00 | 57 | 1015.7 |
| 20260509153130 | 72 | 103 | 7.0 | 11.0 | 0.00 | 0.04 | 0.00 | 53 | 1015.9 |
| 20260509153008 | 71 | 124 | 7.0 | 10.0 | 0.00 | 0.00 | 0.00 | 56 | 1015.5 |
| 20260509152203 | 72 | 125 | 7.0 | 10.0 | 0.00 | 0.04 | 0.00 | 56 | 1016.0 |
| 20260509151506 | 71 | 110 | 6.0 | 12.0 | 0.00 | 0.00 | 0.00 | 55 | 1015.7 |
| 20260509151139 | 72 | 88 | 8.0 | 12.0 | 0.00 | 0.04 | 0.00 | 54 | 1016.1 |
| 20260509150127 | 72 | 91 | 10.0 | 12.0 | 0.00 | 0.04 | 0.00 | 50 | 1016.0 |
| 20260509150004 | 71 | 84 | 9.0 | 12.0 | 0.00 | 0.00 | 0.00 | 46 | 1015.6 |
| 20260509145139 | 72 | 98 | 7.0 | 11.0 | 0.00 | 0.04 | 0.00 | 51 | 1016.1 |
| 20260509144503 | 71 | 116 | 9.0 | 11.0 | 0.00 | 0.00 | 0.00 | 50 | 1015.7 |
| 20260509144135 | 72 | 98 | 8.0 | 11.0 | 0.00 | 0.04 | 0.00 | 53 | 1016.0 |
| 20260509143143 | 72 | 91 | 8.0 | 10.0 | 0.00 | 0.04 | 0.00 | 52 | 1016.1 |
| 20260509143017 | 72 | 91 | 7.0 | 10.0 | 0.00 | 0.00 | 0.00 | 51 | 1015.8 |
| 20260509142131 | 72 | 81 | 7.0 | 9.0 | 0.00 | 0.04 | 0.00 | 53 | 1016.2 |
| 20260509141514 | 72 | 96 | 5.0 | 10.0 | 0.00 | 0.00 | 0.00 | 54 | 1015.8 |
| 20260509141134 | 73 | 83 | 5.0 | 9.0 | 0.00 | 0.04 | 0.00 | 53 | 1016.3 |
| 20260509140139 | 73 | 101 | 7.0 | 11.0 | 0.00 | 0.04 | 0.00 | 56 | 1016.2 |
| 20260509140007 | 72 | 77 | 7.0 | 11.0 | 0.00 | 0.00 | 0.00 | 55 | 1015.8 |
| 20260509135128 | 73 | 48 | 6.0 | 12.0 | 0.00 | 0.04 | 0.00 | 51 | 1016.4 |
| 20260509134505 | 72 | 85 | 7.0 | 12.0 | 0.00 | 0.00 | 0.00 | 51 | 1016.0 |
| 20260509134130 | 73 | 82 | 6.0 | 9.0 | 0.00 | 0.04 | 0.00 | 56 | 1016.4 |
| 20260509133126 | 73 | 95 | 6.0 | 12.0 | 0.00 | 0.04 | 0.00 | 52 | 1016.6 |
| 20260509133007 | 73 | 46 | 4.0 | 10.0 | 0.00 | 0.00 | 0.00 | 55 | 1016.1 |
| 20260509132124 | 73 | 39 | 5.0 | 10.0 | 0.00 | 0.04 | 0.00 | 53 | 1016.6 |
| 20260509131504 | 73 | 106 | 3.0 | 8.0 | 0.00 | 0.00 | 0.00 | 52 | 1016.2 |
| 20260509131135 | 74 | 89 | 3.0 | 8.0 | 0.00 | 0.04 | 0.00 | 50 | 1016.7 |
| 20260509130127 | 74 | 58 | 2.0 | 7.0 | 0.00 | 0.04 | 0.00 | 49 | 1016.7 |
| 20260509130022 | 73 | 79 | 3.0 | 7.0 | 0.00 | 0.00 | 0.00 | 48 | 1016.3 |
| 20260509125128 | 73 | 48 | 3.0 | 8.0 | 0.00 | 0.04 | 0.00 | 50 | 1016.9 |
| 20260509124518 | 73 | 85 | 4.0 | 8.0 | 0.00 | 0.00 | 0.00 | 50 | 1016.5 |
| 20260509124135 | 73 | 108 | 3.0 | 8.0 | 0.00 | 0.04 | 0.00 | 50 | 1017.0 |
| 20260509123134 | 73 | 82 | 3.0 | 10.0 | 0.00 | 0.04 | 0.00 | 51 | 1017.0 |
| 20260509123018 | 72 | 89 | 5.0 | 10.0 | 0.00 | 0.00 | 0.00 | 51 | 1016.5 |
| 20260509122140 | 73 | 91 | 5.0 | 9.0 | 0.00 | 0.04 | 0.00 | 50 | 1017.2 |
| 20260509121513 | 72 | 101 | 4.0 | 9.0 | 0.00 | 0.00 | 0.00 | 53 | 1016.7 |
| 20260509121133 | 72 | 27 | 4.0 | 8.0 | 0.00 | 0.04 | 0.00 | 53 | 1017.2 |
| 20260509120132 | 72 | 86 | 5.0 | 8.0 | 0.00 | 0.04 | 0.00 | 53 | 1017.3 |
| 20260509120009 | 72 | 82 | 3.0 | 8.0 | 0.00 | 0.00 | 0.00 | 56 | 1016.7 |
| 20260509115129 | 72 | 34 | 4.0 | 9.0 | 0.00 | 0.04 | 0.00 | 57 | 1017.3 |
| 20260509114505 | 71 | 35 | 4.0 | 10.0 | 0.00 | 0.00 | 0.00 | 56 | 1016.7 |
| 20260509114138 | 72 | 74 | 5.0 | 10.0 | 0.00 | 0.04 | 0.00 | 58 | 1017.2 |
| 20260509113152 | 73 | 39 | 7.0 | 11.0 | 0.00 | 0.04 | 0.00 | 52 | 1017.3 |
| 20260509113024 | 72 | 43 | 6.0 | 11.0 | 0.00 | 0.00 | 0.00 | 54 | 1016.8 |
| 20260509112140 | 74 | 91 | 5.0 | 6.0 | 0.00 | 0.04 | 0.00 | 46 | 1017.3 |
| 20260509111522 | 72 | 118 | 3.0 | 8.0 | 0.00 | 0.00 | 0.00 | 43 | 1016.9 |
| 20260509111204 | 73 | 96 | 5.0 | 8.0 | 0.00 | 0.04 | 0.00 | 42 | 1017.4 |
| 20260509110130 | 73 | 226 | 0.0 | 5.0 | 0.00 | 0.04 | 0.00 | 43 | 1017.5 |
| 20260509110016 | 72 | 230 | 1.0 | 6.0 | 0.00 | 0.00 | 0.00 | 41 | 1017.1 |
| 20260509105131 | 73 | 98 | 1.0 | 8.0 | 0.00 | 0.04 | 0.00 | 44 | 1017.6 |
| 20260509104515 | 73 | 51 | 4.0 | 6.0 | 0.00 | 0.00 | 0.00 | 42 | 1017.1 |
| 20260509104138 | 74 | 345 | 2.0 | 5.0 | 0.00 | 0.04 | 0.00 | 43 | 1017.6 |
| 20260509103129 | 73 | 84 | 2.0 | 7.0 | 0.00 | 0.04 | 0.00 | 46 | 1017.7 |
| 20260509103010 | 72 | 65 | 2.0 | 7.0 | 0.00 | 0.00 | 0.00 | 45 | 1017.2 |
| 20260509102128 | 72 | 32 | 5.0 | 8.0 | 0.00 | 0.04 | 0.00 | 46 | 1017.8 |
| 20260509101504 | 73 | 6 | 5.0 | 7.0 | 0.00 | 0.00 | 0.00 | 48 | 1017.3 |
| 20260509101130 | 73 | 328 | 0.0 | 7.0 | 0.00 | 0.04 | 0.00 | 54 | 1017.9 |
| 20260509100133 | 72 | 298 | 1.0 | 7.0 | 0.00 | 0.04 | 0.00 | 51 | 1017.9 |
| 20260509100024 | 71 | 300 | 1.0 | 7.0 | 0.00 | 0.00 | 0.00 | 52 | 1017.4 |
| 20260509095142 | 72 | 336 | 3.0 | 7.0 | 0.00 | 0.04 | 0.00 | 57 | 1018.0 |
| 20260509094528 | 72 | 7 | 2.0 | 5.0 | 0.00 | 0.00 | 0.00 | 59 | 1017.4 |
| 20260509094137 | 73 | 340 | 2.0 | 5.0 | 0.00 | 0.04 | 0.00 | 62 | 1018.0 |
| 20260509093127 | 71 | 138 | 1.0 | 5.0 | 0.00 | 0.04 | 0.00 | 55 | 1018.0 |
| 20260509093020 | 71 | 326 | 2.0 | 5.0 | 0.00 | 0.00 | 0.00 | 55 | 1017.4 |
| 20260509092133 | 71 | 330 | 0.0 | 5.0 | 0.00 | 0.04 | 0.01 | 61 | 1018.0 |
| 20260509091518 | 71 | 325 | 2.0 | 5.0 | 0.00 | 0.00 | 0.00 | 62 | 1017.4 |
| 20260509091153 | 71 | 267 | 0.0 | 5.0 | 0.00 | 0.04 | 0.01 | 60 | 1018.0 |
| 20260509090139 | 70 | 321 | 0.0 | 6.0 | 0.00 | 0.04 | 0.01 | 63 | 1017.9 |
| 20260509090010 | 69 | 305 | 2.0 | 6.0 | 0.00 | 0.00 | 0.00 | 62 | 1017.4 |
| 20260509085136 | 69 | 277 | 0.0 | 4.0 | 0.00 | 0.04 | 0.01 | 65 | 1018.0 |
| 20260509084510 | 68 | 342 | 2.0 | 6.0 | 0.00 | 0.00 | 0.00 | 67 | 1017.6 |
| 20260509084132 | 68 | 286 | 2.0 | 6.0 | 0.00 | 0.04 | 0.01 | 66 | 1018.1 |
| 20260509083125 | 68 | 277 | 3.0 | 5.0 | 0.00 | 0.04 | 0.01 | 70 | 1018.2 |
| 20260509083025 | 67 | 240 | 3.0 | 5.0 | 0.00 | 0.00 | 0.00 | 69 | 1017.6 |
| 20260509082155 | 67 | 306 | 3.0 | 6.0 | 0.00 | 0.04 | 0.01 | 73 | 1018.1 |
| 20260509081524 | 66 | 307 | 1.0 | 5.0 | 0.00 | 0.00 | 0.00 | 74 | 1017.7 |
| 20260509081207 | 66 | 300 | 4.0 | 5.0 | 0.00 | 0.04 | 0.01 | 74 | 1018.2 |
| 20260509080137 | 66 | 259 | 5.0 | 6.0 | 0.00 | 0.04 | 0.01 | 75 | 1018.4 |
| 20260509080024 | 65 | 233 | 4.0 | 6.0 | 0.00 | 0.00 | 0.00 | 76 | 1017.8 |
| 20260509075126 | 65 | 236 | 4.0 | 6.0 | 0.00 | 0.04 | 0.01 | 76 | 1018.4 |
| 20260509074518 | 64 | 232 | 3.0 | 6.0 | 0.00 | 0.00 | 0.00 | 76 | 1017.8 |
| 20260509074143 | 64 | 263 | 1.0 | 5.0 | 0.00 | 0.04 | 0.01 | 77 | 1018.4 |
| 20260509073128 | 64 | 271 | 3.0 | 7.0 | 0.00 | 0.04 | 0.01 | 77 | 1018.5 |
| 20260509073028 | 63 | 231 | 3.0 | 7.0 | 0.00 | 0.00 | 0.00 | 75 | 1017.9 |
| 20260509072157 | 63 | 289 | 3.0 | 5.0 | 0.04 | 0.04 | 0.01 | 77 | 1018.4 |
| 20260509071512 | 62 | 272 | 3.0 | 7.0 | 0.00 | 0.00 | 0.00 | 77 | 1017.9 |
| 20260509071141 | 62 | 259 | 4.0 | 6.0 | 0.04 | 0.04 | 0.01 | 77 | 1018.4 |
| 20260509070124 | 62 | 263 | 4.0 | 7.0 | 0.04 | 0.04 | 0.01 | 79 | 1018.4 |
| 20260509070007 | 61 | 270 | 3.0 | 6.0 | 0.00 | 0.00 | 0.00 | 78 | 1017.8 |
| 20260509065128 | 61 | 272 | 3.0 | 5.0 | 0.04 | 0.04 | 0.01 | 80 | 1018.3 |
| 20260509064504 | 59 | 266 | 2.0 | 5.0 | 0.00 | 0.00 | 0.00 | 80 | 1017.7 |
| 20260509064139 | 60 | 271 | 3.0 | 5.0 | 0.04 | 0.04 | 0.01 | 81 | 1018.3 |
| 20260509063133 | 59 | 250 | 3.0 | 4.0 | 0.04 | 0.04 | 0.01 | 83 | 1018.3 |
| 20260509063005 | 58 | 233 | 2.0 | 3.0 | 0.00 | 0.00 | 0.00 | 83 | 1017.8 |
| 20260509062135 | 58 | 249 | 2.0 | 3.0 | 0.00 | 0.00 | 0.00 | 84 | 1018.3 |
| 20260509061504 | 57 | 276 | 1.0 | 4.0 | 0.00 | 0.00 | 0.00 | 85 | 1017.7 |
| 20260509061206 | 58 | 277 | 1.0 | 4.0 | 0.00 | 0.00 | 0.00 | 86 | 1018.2 |
| 20260509060129 | 57 | 231 | 0.0 | 2.0 | 0.00 | 0.00 | 0.00 | 88 | 1018.3 |
| 20260509060033 | 56 | 254 | 1.0 | 3.0 | 0.00 | 0.00 | 0.00 | 87 | 1017.7 |
| 20260509055132 | 56 | 243 | 1.0 | 4.0 | 0.00 | 0.00 | 0.00 | 88 | 1018.3 |
| 20260509054513 | 55 | 245 | 3.0 | 4.0 | 0.00 | 0.00 | 0.00 | 88 | 1017.7 |
| 20260509054154 | 55 | 249 | 2.0 | 4.0 | 0.00 | 0.00 | 0.00 | 90 | 1018.2 |
| 20260509053129 | 54 | 231 | 0.0 | 2.0 | 0.00 | 0.00 | 0.00 | 93 | 1018.2 |
| 20260509053019 | 54 | 231 | 0.0 | 2.0 | 0.00 | 0.00 | 0.00 | 92 | 1017.7 |
| 20260509052133 | 53 | 238 | 0.0 | 2.0 | 0.00 | 0.00 | 0.00 | 93 | 1018.2 |
| 20260509051508 | 52 | 217 | 1.0 | 2.0 | 0.00 | 0.00 | 0.00 | 93 | 1017.6 |
| 20260509051145 | 53 | 231 | 1.0 | 2.0 | 0.00 | 0.00 | 0.00 | 94 | 1018.1 |
| 20260509050144 | 52 | 230 | 0.0 | 3.0 | 0.00 | 0.00 | 0.00 | 94 | 1017.9 |
| 20260509050008 | 51 | 226 | 1.0 | 3.0 | 0.00 | 0.00 | 0.00 | 93 | 1017.4 |
| 20260509045128 | 52 | 261 | 1.0 | 2.0 | 0.00 | 0.00 | 0.00 | 94 | 1017.7 |
| 20260509044504 | 51 | 261 | 1.0 | 4.0 | 0.00 | 0.00 | 0.00 | 93 | 1017.2 |
| 20260509044136 | 52 | 257 | 2.0 | 4.0 | 0.00 | 0.00 | 0.00 | 93 | 1017.6 |
| 20260509043139 | 51 | 233 | 0.0 | 2.0 | 0.00 | 0.00 | 0.00 | 93 | 1017.6 |
| 20260509043030 | 51 | 234 | 0.0 | 2.0 | 0.00 | 0.00 | 0.00 | 93 | 1017.1 |
| 20260509042150 | 52 | 210 | 1.0 | 1.0 | 0.00 | 0.00 | 0.00 | 93 | 1017.5 |
| 20260509041519 | 51 | 251 | 1.0 | 2.0 | 0.00 | 0.00 | 0.00 | 93 | 1017.0 |
| 20260509041204 | 52 | 262 | 1.0 | 2.0 | 0.00 | 0.00 | 0.00 | 93 | 1017.4 |
| 20260509040132 | 52 | 236 | 0.0 | 1.0 | 0.00 | 0.00 | 0.00 | 93 | 1017.3 |
| 20260509040016 | 51 | 237 | 0.0 | 1.0 | 0.00 | 0.00 | 0.00 | 93 | 1016.9 |
| 20260509035131 | 52 | 245 | 0.0 | 1.0 | 0.00 | 0.00 | 0.00 | 93 | 1017.3 |
| 20260509034510 | 52 | 245 | 0.0 | 0.0 | 0.00 | 0.00 | 0.00 | 93 | 1016.8 |
| 20260509034128 | 52 | 245 | 0.0 | 1.0 | 0.00 | 0.00 | 0.00 | 93 | 1017.3 |
| 20260509033132 | 52 | 248 | 0.0 | 1.0 | 0.00 | 0.00 | 0.00 | 93 | 1017.4 |
| 20260509033010 | 52 | 245 | 0.0 | 1.0 | 0.00 | 0.00 | 0.00 | 93 | 1017.0 |
| 20260509032144 | 52 | 229 | 0.0 | 2.0 | 0.00 | 0.00 | 0.00 | 93 | 1017.4 |
| 20260509031510 | 52 | 226 | 1.0 | 3.0 | 0.00 | 0.00 | 0.00 | 93 | 1017.0 |
| 20260509031137 | 53 | 219 | 2.0 | 3.0 | 0.00 | 0.00 | 0.00 | 93 | 1017.4 |
| 20260509030139 | 53 | 235 | 1.0 | 2.0 | 0.00 | 0.00 | 0.00 | 93 | 1017.4 |
| 20260509030022 | 52 | 238 | 0.0 | 3.0 | 0.00 | 0.00 | 0.00 | 92 | 1017.0 |
| 20260509025139 | 53 | 231 | 2.0 | 3.0 | 0.00 | 0.00 | 0.00 | 93 | 1017.4 |
| 20260509024520 | 52 | 239 | 1.0 | 2.0 | 0.00 | 0.00 | 0.00 | 92 | 1017.0 |
| 20260509024135 | 53 | 219 | 0.0 | 2.0 | 0.00 | 0.00 | 0.00 | 93 | 1017.5 |
| 20260509023136 | 53 | 233 | 0.0 | 1.0 | 0.00 | 0.00 | 0.00 | 92 | 1017.5 |
| 20260509023020 | 53 | 231 | 0.0 | 1.0 | 0.00 | 0.00 | 0.00 | 92 | 1017.0 |
| 20260509022126 | 53 | 216 | 0.0 | 1.0 | 0.00 | 0.00 | 0.00 | 92 | 1017.5 |
| 20260509021516 | 53 | 193 | 0.0 | 1.0 | 0.00 | 0.00 | 0.00 | 92 | 1017.0 |
| 20260509021159 | 53 | 217 | 0.0 | 2.0 | 0.00 | 0.00 | 0.00 | 92 | 1017.4 |
| 20260509020126 | 53 | 236 | 0.0 | 2.0 | 0.00 | 0.00 | 0.00 | 92 | 1017.4 |
| 20260509020012 | 53 | 210 | 0.0 | 2.0 | 0.00 | 0.00 | 0.00 | 91 | 1017.0 |
| 20260509015140 | 53 | 236 | 1.0 | 3.0 | 0.00 | 0.00 | 0.00 | 91 | 1017.4 |
| 20260509014528 | 53 | 262 | 2.0 | 3.0 | 0.00 | 0.00 | 0.00 | 91 | 1016.9 |
| 20260509014152 | 54 | 237 | 2.0 | 3.0 | 0.00 | 0.00 | 0.00 | 91 | 1017.3 |
| 20260509013139 | 54 | 245 | 2.0 | 3.0 | 0.00 | 0.00 | 0.00 | 91 | 1017.3 |
| 20260509013027 | 53 | 229 | 2.0 | 3.0 | 0.00 | 0.00 | 0.00 | 91 | 1016.8 |
| 20260509012139 | 54 | 238 | 0.0 | 3.0 | 0.00 | 0.00 | 0.00 | 91 | 1017.2 |
| 20260509011524 | 54 | 219 | 0.0 | 4.0 | 0.00 | 0.00 | 0.00 | 90 | 1016.7 |
| 20260509011155 | 54 | 195 | 1.0 | 4.0 | 0.00 | 0.00 | 0.00 | 91 | 1017.1 |
| 20260509010126 | 54 | 205 | 0.0 | 2.0 | 0.00 | 0.00 | 0.00 | 91 | 1017.0 |
| 20260509010032 | 53 | 204 | 0.0 | 2.0 | 0.00 | 0.00 | 0.00 | 90 | 1016.5 |
| 20260509005128 | 55 | 252 | 0.0 | 1.0 | 0.00 | 0.00 | 0.00 | 90 | 1017.0 |
| 20260509004519 | 54 | 245 | 0.0 | 1.0 | 0.00 | 0.00 | 0.00 | 89 | 1016.5 |
| 20260509004129 | 55 | 245 | 0.0 | 1.0 | 0.00 | 0.00 | 0.00 | 90 | 1017.0 |
| 20260509003134 | 56 | 201 | 0.0 | 1.0 | 0.00 | 0.00 | 0.00 | 90 | 1017.0 |
| 20260509003021 | 55 | 226 | 0.0 | 1.0 | 0.00 | 0.00 | 0.00 | 90 | 1016.5 |
| 20260509002139 | 56 | 236 | 0.0 | 0.0 | 0.00 | 0.00 | 0.00 | 91 | 1017.0 |
| 20260509001527 | 56 | 246 | 0.0 | 1.0 | 0.00 | 0.00 | 0.00 | 91 | 1016.5 |
| 20260509001138 | 56 | 246 | 0.0 | 2.0 | 0.00 | 0.00 | 0.00 | 91 | 1017.0 |
| 20260509000219 | 56 | 267 | 2.0 | 2.0 | 0.00 | 0.00 | 0.00 | 90 | 1017.1 |
| 20260509000028 | 55 | 262 | 1.0 | 3.0 | 0.00 | 0.00 | 0.00 | 89 | 1016.6 |
| 20260508235127 | 57 | 270 | 2.0 | 3.0 | 0.00 | 0.00 | 0.00 | 86 | 1017.1 |
| 20260508234527 | 58 | 172 | 0.0 | 2.0 | 0.00 | 0.00 | 0.00 | 88 | 1016.6 |
| 20260508234128 | 58 | 164 | 1.0 | 2.0 | 0.00 | 0.00 | 0.00 | 89 | 1017.2 |
| 20260508233130 | 57 | 126 | 0.0 | 1.0 | 0.00 | 0.00 | 0.00 | 92 | 1017.1 |
| 20260508233023 | 56 | 86 | 0.0 | 1.0 | 0.00 | 0.00 | 0.00 | 91 | 1016.6 |
| 20260508232146 | 56 | 86 | 1.0 | 1.0 | 0.00 | 0.00 | 0.00 | 90 | 1017.3 |
| 20260508231520 | 56 | 89 | 0.0 | 2.0 | 0.00 | 0.00 | 0.00 | 89 | 1016.7 |
| 20260508231135 | 57 | 89 | 1.0 | 2.0 | 0.00 | 0.00 | 0.00 | 89 | 1017.2 |